OK1ZXS-6 Weather Reports


Display with metric or nautical units.
time (UTC)temp
F
wind
direction
speed
MPH
gust
MPH
rain 1hr
in
rain 24hr
in
rain mn
in
humidity
%
barometer
mb
20260506072402 66 225 1.0 5.0 0.00 0.00 0.00 61
20260506070903 66 225 2.0 7.0 0.00 0.00 0.00 63
20260506062404 64 225 2.0 9.0 0.00 0.00 0.00 64
20260506060902 66 247 3.0 7.0 0.00 0.00 0.00 63
20260506050903 66 247 2.0 5.0 0.00 0.00 0.00 66
20260506043904 59 225 2.0 3.0 0.00 0.00 0.00 76
20260506042405 51 225 0.0 1.0 0.00 0.00 0.00 85
20260506040902 49 247 0.0 1.0 0.00 0.00 0.00 87
20260506035403 49 247 0.0 0.0 0.00 0.00 0.00 86
20260506033902 49 247 0.0 0.0 0.00 0.00 0.00 87
20260506032402 49 247 0.0 0.0 0.00 0.00 0.00 87
20260506030902 50 247 0.0 0.0 0.00 0.00 0.00 88
20260506025402 51 247 0.0 2.0 0.00 0.00 0.00 87
20260506023901 51 247 1.0 3.0 0.00 0.00 0.00 88
20260506022402 52 270 2.0 6.0 0.00 0.00 0.00 88
20260506015401 52 247 1.0 3.0 0.00 0.00 0.00 87
20260506013901 52 247 1.0 4.0 0.00 0.00 0.00 87
20260506012402 52 247 1.0 4.0 0.00 0.00 0.00 85
20260506010901 53 270 1.0 4.0 0.00 0.00 0.00 84
20260506005403 53 247 2.0 5.0 0.00 0.00 0.00 82
20260506003902 54 270 2.0 5.0 0.00 0.00 0.00 82
20260506002402 54 270 2.0 6.0 0.00 0.00 0.00 81
20260506000902 55 270 3.0 12.0 0.00 0.00 0.00 81
20260505235403 55 0 4.0 12.0 0.00 0.00 0.00 80
20260505233901 56 270 4.0 12.0 0.00 0.00 0.00 78
20260505232406 56 0 5.0 14.0 0.00 0.00 0.00 79
20260505230901 57 0 5.0 12.0 0.00 0.00 0.00 77
20260505225403 58 315 5.0 16.0 0.00 0.00 0.00 74
20260505223902 59 0 5.0 14.0 0.00 0.00 0.00 72
20260505222402 59 337 5.0 16.0 0.00 0.00 0.00 71
20260505220902 59 292 6.0 19.0 0.00 0.00 0.00 69
20260505215403 59 270 5.0 15.0 0.00 0.00 0.00 69
20260505213902 59 270 5.0 12.0 0.00 0.00 0.00 69
20260505212402 60 247 5.0 15.0 0.00 0.00 0.00 65
20260505210902 60 225 3.0 12.0 0.00 0.00 0.00 62
20260505205402 61 225 3.0 8.0 0.00 0.00 0.00 61
20260505203902 61 225 3.0 6.0 0.00 0.00 0.00 59
20260505202401 60 225 2.0 5.0 0.00 0.00 0.00 59
20260505200902 61 45 1.0 4.0 0.00 0.00 0.00 57
20260505195403 62 22 2.0 8.0 0.00 0.00 0.00 56
20260505193902 63 90 3.0 8.0 0.00 0.00 0.00 54
20260505192402 63 22 2.0 6.0 0.00 0.00 0.00 54
20260505190902 63 45 2.0 7.0 0.00 0.00 0.00 53
20260505185401 63 90 4.0 8.0 0.00 0.00 0.00 54
20260505183902 62 90 3.0 5.0 0.00 0.00 0.00 54
20260505182402 62 90 2.0 3.0 0.00 0.00 0.00 55
20260505180902 63 112 0.0 0.0 0.00 0.00 0.00 56
20260505175402 64 112 0.0 0.0 0.00 0.00 0.00 52
20260505173903 66 112 0.0 1.0 0.00 0.00 0.00 48
20260505172403 68 112 2.0 3.0 0.00 0.00 0.00 44
20260505170903 68 90 1.0 2.0 0.00 0.00 0.00 45
20260505163902 69 90 2.0 4.0 0.00 0.00 0.00 43
20260505162404 69 67 2.0 4.0 0.00 0.00 0.00 42
20260505160901 70 67 1.0 3.0 0.00 0.00 0.00 44
20260505152403 71 67 1.0 5.0 0.00 0.00 0.00 42
20260505150901 70 22 1.0 6.0 0.00 0.00 0.00 44
20260505123902 72 112 0.0 2.0 0.00 0.00 0.00 44
20260505122406 75 67 2.0 8.0 0.00 0.00 0.00 41
20260505120902 77 45 3.0 9.0 0.00 0.00 0.00 39
20260505115403 75 45 4.0 12.0 0.00 0.00 0.00 40
20260505113902 75 247 2.0 6.0 0.00 0.00 0.00 41
20260505112402 75 225 2.0 8.0 0.00 0.00 0.00 43
20260505110901 74 225 2.0 7.0 0.00 0.00 0.00 45
20260505100902 70 112 1.0 5.0 0.00 0.00 0.00 49
20260505095403 71 225 1.0 5.0 0.00 0.00 0.00 49
20260505093902 70 225 1.0 4.0 0.00 0.00 0.00 50
20260505092404 70 225 2.0 4.0 0.00 0.00 0.00 48
20260505090902 70 225 2.0 6.0 0.00 0.00 0.00 49
20260505085402 70 225 1.0 5.0 0.00 0.00 0.00 49
20260505083902 70 67 1.0 3.0 0.00 0.00 0.00 46
20260505082402 70 247 0.0 2.0 0.00 0.00 0.00 48
20260505080901 70 225 0.0 1.0 0.00 0.00 0.00 48